FW8731 Weather Reports


Display with metric or nautical units.
time (UTC)temp
F
wind
direction
speed
MPH
gust
MPH
rain 1hr
in
rain 24hr
in
rain mn
in
humidity
%
barometer
mb
20260504220046 76 188 6.0 18.0 0.00 0.14 0.00 58 1009.8
20260504214535 75 200 5.0 16.0 0.00 0.14 0.00 57 1010.1
20260504213042 76 182 5.0 15.0 0.00 0.14 0.00 57 1010.2
20260504211538 74 213 6.0 16.0 0.00 0.14 0.00 60 1010.4
20260504210053 74 158 6.0 18.0 0.00 0.14 0.00 59 1010.8
20260504204557 73 215 6.0 16.0 0.00 0.14 0.00 61 1011.0
20260504203038 72 219 5.0 15.0 0.00 0.14 0.00 61 1011.2
20260504201542 72 218 4.0 15.0 0.00 0.14 0.00 63 1011.2
20260504200048 71 130 4.0 12.0 0.00 0.14 0.00 63 1011.6
20260504194544 71 155 4.0 10.0 0.00 0.14 0.00 64 1011.8
20260504193044 69 207 6.0 13.0 0.00 0.14 0.00 65 1012.0
20260504191543 69 190 3.0 10.0 0.00 0.14 0.00 68 1012.2
20260504190042 68 218 4.0 12.0 0.00 0.14 0.00 69 1012.4
20260504184540 67 222 3.0 10.0 0.00 0.14 0.00 70 1012.5
20260504183045 66 203 5.0 13.0 0.00 0.14 0.00 70 1012.6
20260504181543 65 172 4.0 12.0 0.00 0.14 0.00 70 1012.8
20260504180044 65 188 4.0 12.0 0.00 0.14 0.00 71 1012.8
20260504174542 63 165 6.0 12.0 0.00 0.14 0.00 72 1012.9
20260504173040 63 196 3.0 9.0 0.00 0.14 0.00 74 1013.1
20260504171545 62 215 4.0 11.0 0.00 0.14 0.00 76 1013.2
20260504081537 57 106 1.0 4.0 0.00 0.14 0.00 94 1011.9
20260504044547 58 0 1.0 3.0 0.00 0.14 0.14 91 1011.1
20260504043039 59 97 0.0 3.0 0.00 0.14 0.14 91 1011.1
20260504041542 59 128 1.0 7.0 0.00 0.14 0.14 90 1010.9
20260504040042 58 183 3.0 10.0 0.00 0.14 0.14 92 1010.6
20260504034545 58 157 1.0 3.0 0.00 0.14 0.14 93 1010.3
20260504033043 58 0 0.0 1.0 0.00 0.14 0.14 93 1010.4
20260504031543 58 192 0.0 1.0 0.00 0.14 0.14 92 1010.4
20260504030047 59 0 0.0 2.0 0.00 0.14 0.14 92 1010.4
20260504024545 59 0 0.0 3.0 0.00 0.14 0.14 92 1010.4
20260504023043 59 175 0.0 2.0 0.00 0.14 0.14 92 1010.4
20260504021541 59 0 0.0 5.0 0.00 0.14 0.14 92 1010.6
20260504020041 59 122 1.0 2.0 0.00 0.14 0.14 92 1010.8
20260504014540 59 0 0.0 1.0 0.00 0.14 0.14 92 1010.6
20260504013102 59 0 0.0 1.0 0.00 0.14 0.14 92 1010.2
20260504011543 59 0 0.0 2.0 0.01 0.14 0.14 90 1010.1
20260504010043 59 122 0.0 4.0 0.07 0.14 0.14 89 1010.3
20260504004538 60 98 0.0 3.0 0.14 0.14 0.14 89 1010.6
20260504003044 60 172 2.0 5.0 0.14 0.14 0.14 87 1010.7
20260504001548 62 134 2.0 5.0 0.13 0.13 0.13 82 1011.1
20260504000043 70 313 2.0 16.0 0.06 0.06 0.06 63 1011.2
20260503234538 79 115 1.0 7.0 0.00 0.00 0.00 36 1009.8
20260503233046 81 0 1.0 3.0 0.00 0.00 0.00 40 1008.0
20260503231545 84 215 1.0 5.0 0.00 0.00 0.00 39 1007.1
20260503230045 86 198 0.0 5.0 0.00 0.00 0.00 36 1007.1
20260503224543 85 187 0.0 6.0 0.00 0.00 0.00 33 1007.2
20260503223039 85 0 0.0 5.0 0.00 0.00 0.00 29 1007.5
20260503221537 85 180 2.0 5.0 0.00 0.00 0.00 32 1007.5